• In Netherlands
  • List of Countries
  • For 7 days
  • Water Temperature
  • Satellite Maps
  • Weather Map
  • Weather Widgets
  • user-avatar
    Login

    Hourly Weather La Rioja

    Today, 17 January, Tuesday

    Time Temperature Precipitation Wind Pressure Humidity
    00:00 +29°C° 0 mm 1 mps 713 mmHg 38%
    01:00 +29°C° 0 mm 1 mps 713 mmHg 40%
    02:00 +28°C° 0 mm 1 mps 713 mmHg 42%
    03:00 +27°C° 0 mm 1 mps 713 mmHg 44%
    04:00 +27°C° 0 mm 1 mps 713 mmHg 46%
    05:00 +26°C° 0 mm 1 mps 713 mmHg 49%
    06:00 +28°C° 0 mm 1 mps 714 mmHg 45%
    07:00 +29°C° 0 mm 1 mps 714 mmHg 41%
    08:00 +30°C° 0 mm 1 mps 715 mmHg 37%
    09:00 +32°C° 0 mm 1 mps 715 mmHg 33%
    10:00 +34°C° 0 mm 1 mps 714 mmHg 29%
    11:00 +36°C° 0 mm 2 mps 714 mmHg 25%
    12:00 +37°C° 0 mm 2 mps 714 mmHg 22%
    13:00 +38°C° 0 mm 3 mps 713 mmHg 20%
    14:00 +39°C° 0 mm 3 mps 712 mmHg 18%
    15:00 +39°C° 0 mm 3 mps 711 mmHg 17%
    16:00 +39°C° 0 mm 3 mps 711 mmHg 17%
    17:00 +39°C° 0 mm 3 mps 710 mmHg 17%
    18:00 +38°C° 0 mm 3 mps 710 mmHg 21%
    19:00 +36°C° 0 mm 2 mps 711 mmHg 24%
    20:00 +34°C° 0 mm 2 mps 711 mmHg 28%
    21:00 +32°C° 0 mm 2 mps 712 mmHg 30%
    22:00 +31°C° 0 mm 2 mps 712 mmHg 31%
    23:00 +30°C° 0 mm 2 mps 713 mmHg 33%

    Tomorrow, 18 January, Wednesday

    Time Temperature Precipitation Wind Pressure Humidity
    00:00 +30°C° 0 mm 2 mps 713 mmHg 35%
    01:00 +29°C° 0 mm 1 mps 712 mmHg 36%
    02:00 +29°C° 0 mm 1 mps 712 mmHg 37%
    03:00 +28°C° 0 mm 1 mps 712 mmHg 38%
    04:00 +28°C° 0 mm 1 mps 712 mmHg 39%
    05:00 +27°C° 0 mm 1 mps 712 mmHg 40%
    06:00 +29°C° 0 mm 1 mps 713 mmHg 36%
    07:00 +30°C° 0 mm 1 mps 714 mmHg 32%
    08:00 +32°C° 0 mm 1 mps 714 mmHg 28%
    09:00 +33°C° 0 mm 1 mps 714 mmHg 26%
    10:00 +36°C° 0 mm 2 mps 714 mmHg 24%
    11:00 +37°C° 0 mm 2 mps 714 mmHg 22%
    12:00 +39°C° 0 mm 3 mps 713 mmHg 21%
    13:00 +40°C° 0 mm 3 mps 713 mmHg 19%
    14:00 +42°C° 0 mm 4 mps 712 mmHg 17%
    15:00 +42°C° 0 mm 5 mps 711 mmHg 17%
    16:00 +42°C° 0 mm 5 mps 711 mmHg 17%
    17:00 +42°C° 0 mm 6 mps 710 mmHg 16%
    18:00 +40°C° 0 mm 5 mps 711 mmHg 20%
    19:00 +37°C° 0 mm 4 mps 711 mmHg 24%
    20:00 +35°C° 0 mm 3 mps 711 mmHg 28%
    21:00 +34°C° 0 mm 3 mps 712 mmHg 29%
    22:00 +33°C° 0 mm 3 mps 712 mmHg 30%
    23:00 +31°C° 0 mm 3 mps 713 mmHg 32%

    Day after tomorrow, 19 January, Thursday

    Time Temperature Precipitation Wind Pressure Humidity
    00:00 +31°C° 0 mm 3 mps 712 mmHg 33%
    01:00 +30°C° 0 mm 2 mps 712 mmHg 34%
    02:00 +29°C° 0 mm 2 mps 712 mmHg 36%
    03:00 +29°C° 0 mm 2 mps 712 mmHg 37%
    04:00 +29°C° 0 mm 2 mps 712 mmHg 38%
    05:00 +28°C° 0 mm 2 mps 712 mmHg 40%
    06:00 +30°C° 0 mm 2 mps 712 mmHg 36%
    07:00 +31°C° 0 mm 2 mps 713 mmHg 33%
    08:00 +34°C° 0 mm 2 mps 713 mmHg 30%
    09:00 +36°C° 0 mm 2 mps 713 mmHg 27%
    10:00 +37°C° 0 mm 2 mps 714 mmHg 25%
    11:00 +39°C° 0 mm 2 mps 714 mmHg 23%
    12:00 +40°C° 0 mm 3 mps 713 mmHg 22%
    13:00 +42°C° 0 mm 4 mps 712 mmHg 20%
    14:00 +43°C° 0 mm 4 mps 712 mmHg 19%
    15:00 +43°C° 0 mm 5 mps 711 mmHg 19%
    16:00 +42°C° 0 mm 5 mps 711 mmHg 18%
    17:00 +42°C° 0 mm 5 mps 711 mmHg 18%
    18:00 +40°C° 0 mm 5 mps 711 mmHg 22%
    19:00 +38°C° 0 mm 4 mps 712 mmHg 26%
    20:00 +36°C° 0 mm 3 mps 712 mmHg 30%
    21:00 +35°C° 0 mm 3 mps 713 mmHg 32%
    22:00 +34°C° 0 mm 2 mps 714 mmHg 34%
    23:00 +31°C° 0 mm 2 mps 714 mmHg 36%

    20 January, Friday

    Time Temperature Precipitation Wind Pressure Humidity
    00:00 +31°C° 0 mm 2 mps 714 mmHg 37%
    01:00 +30°C° 0 mm 2 mps 714 mmHg 38%
    02:00 +30°C° 0 mm 2 mps 714 mmHg 39%
    03:00 +29°C° 0 mm 2 mps 714 mmHg 39%
    04:00 +29°C° 0 mm 2 mps 714 mmHg 40%
    05:00 +29°C° 0 mm 2 mps 714 mmHg 41%
    06:00 +30°C° 0 mm 2 mps 715 mmHg 38%
    07:00 +31°C° 0 mm 2 mps 716 mmHg 34%
    08:00 +34°C° 0 mm 2 mps 716 mmHg 30%
    09:00 +35°C° 0 mm 2 mps 716 mmHg 28%
    10:00 +37°C° 0 mm 2 mps 716 mmHg 26%
    11:00 +38°C° 0 mm 2 mps 716 mmHg 24%
    12:00 +39°C° 0 mm 3 mps 715 mmHg 22%
    13:00 +42°C° 0 mm 4 mps 715 mmHg 21%
    14:00 +43°C° 0 mm 4 mps 714 mmHg 19%
    15:00 +43°C° 0 mm 5 mps 713 mmHg 18%
    16:00 +43°C° 0 mm 5 mps 713 mmHg 18%
    17:00 +42°C° 0 mm 6 mps 712 mmHg 18%
    18:00 +41°C° 0 mm 5 mps 713 mmHg 21%
    19:00 +38°C° 0 mm 4 mps 713 mmHg 24%
    20:00 +36°C° 0 mm 3 mps 713 mmHg 27%
    21:00 +35°C° 0 mm 3 mps 714 mmHg 29%
    22:00 +32°C° 0 mm 2 mps 714 mmHg 31%
    23:00 +31°C° 0 mm 2 mps 715 mmHg 34%

    21 January, Saturday

    Time Temperature Precipitation Wind Pressure Humidity
    00:00 +31°C° 0 mm 2 mps 714 mmHg 34%
    01:00 +30°C° 0 mm 2 mps 714 mmHg 35%
    02:00 +30°C° 0 mm 2 mps 714 mmHg 36%
    03:00 +29°C° 0 mm 2 mps 714 mmHg 37%
    04:00 +29°C° 0 mm 1 mps 714 mmHg 38%
    05:00 +28°C° 0 mm 1 mps 714 mmHg 39%
    06:00 +30°C° 0 mm 1 mps 714 mmHg 35%
    07:00 +31°C° 0 mm 1 mps 715 mmHg 32%
    08:00 +33°C° 0 mm 1 mps 715 mmHg 28%
    09:00 +34°C° 0 mm 1 mps 715 mmHg 26%
    10:00 +37°C° 0 mm 2 mps 715 mmHg 24%
    11:00 +38°C° 0 mm 2 mps 715 mmHg 22%
    12:00 +39°C° 0 mm 2 mps 714 mmHg 21%
    13:00 +42°C° 0 mm 3 mps 714 mmHg 19%
    14:00 +43°C° 0 mm 3 mps 713 mmHg 18%
    15:00 +43°C° 0 mm 4 mps 713 mmHg 18%
    16:00 +43°C° 0 mm 4 mps 712 mmHg 17%
    17:00 +43°C° 0 mm 4 mps 712 mmHg 17%
    18:00 +41°C° 0 mm 4 mps 712 mmHg 20%
    19:00 +38°C° 0 mm 3 mps 713 mmHg 23%
    20:00 +36°C° 0 mm 2 mps 713 mmHg 26%
    21:00 +35°C° 0 mm 2 mps 713 mmHg 28%
    22:00 +34°C° 0 mm 2 mps 714 mmHg 29%
    23:00 +34°C° 0 mm 2 mps 714 mmHg 31%

    22 January, Sunday

    Time Temperature Precipitation Wind Pressure Humidity
    00:00 +32°C° 0 mm 2 mps 714 mmHg 32%
    01:00 +31°C° 0 mm 2 mps 714 mmHg 33%
    02:00 +31°C° 0 mm 2 mps 713 mmHg 33%
    03:00 +30°C° 0 mm 2 mps 713 mmHg 34%
    04:00 +30°C° 0 mm 2 mps 713 mmHg 35%
    05:00 +29°C° 0 mm 2 mps 713 mmHg 36%
    06:00 +31°C° 0 mm 2 mps 714 mmHg 32%
    07:00 +32°C° 0 mm 2 mps 714 mmHg 29%
    08:00 +34°C° 0 mm 1 mps 715 mmHg 26%
    09:00 +35°C° 0 mm 1 mps 715 mmHg 24%
    10:00 +37°C° 0 mm 1 mps 715 mmHg 23%
    11:00 +39°C° 0 mm 1 mps 715 mmHg 21%
    12:00 +40°C° 0 mm 1 mps 714 mmHg 20%
    13:00 +41°C° 0 mm 2 mps 713 mmHg 19%
    14:00 +43°C° 0 mm 3 mps 712 mmHg 18%
    15:00 +43°C° 0 mm 3 mps 712 mmHg 18%
    16:00 +43°C° 0 mm 3 mps 712 mmHg 18%
    17:00 +43°C° 0 mm 3 mps 711 mmHg 18%
    18:00 +40°C° 0.3 mm 3 mps 711 mmHg 22%
    19:00 +38°C° 0.3 mm 3 mps 712 mmHg 26%
    20:00 +36°C° 0.3 mm 3 mps 712 mmHg 29%
    21:00 +35°C° 0.3 mm 3 mps 712 mmHg 32%
    22:00 +34°C° 0.3 mm 2 mps 713 mmHg 35%
    23:00 +31°C° 0.3 mm 2 mps 713 mmHg 38%
    Show more